{"data":{"norad_id":68279,"epoch":"2026-09-19T22:24:13.345056Z","epoch_age_seconds":100549,"freshness":"FRESH","line1":"1 68279U 26055T   26262.93348779  .00018065  00000+0  54429-3 0  9994","line2":"2 68279  53.1569 132.5472 0001668  80.3813 279.7378 15.34412518 29739","mean_motion":15.34412518,"eccentricity":0.0001668,"inclination_deg":53.1569,"raan_deg":132.5472,"arg_perigee_deg":80.3813,"mean_anomaly_deg":279.7378,"bstar":0.00054429,"rev_number":2973,"period_min":93.846992455258,"perigee_km":461.52498837988,"apogee_km":463.80708027213,"semimajor_km":6840.803034326,"source":"CELESTRAK","updated_at":"2026-09-20T09:00:43.849609Z"}}